| time (UTC) | temp F | wind direction | speed knots | gust knots | rain 1hr in | rain 24hr in | rain mn in | humidity % | barometer mb |
| 20260507064521 | 55 | 151 | 1.7 | 4.3 | 0.00 | 0.67 | 0.00 | 85 | 1013.2 |
| 20260507063519 | 53 | 128 | 1.7 | 2.6 | 0.00 | 0.74 | 0.00 | 87 | 1013.1 |
| 20260507062516 | 54 | 106 | 1.7 | 4.3 | 0.00 | 0.78 | 0.00 | 87 | 1013.1 |
| 20260507061534 | 53 | 147 | 1.7 | 3.5 | 0.00 | 0.89 | 0.00 | 88 | 1013.1 |
| 20260507060532 | 53 | 78 | 1.7 | 3.5 | 0.00 | 0.94 | 0.00 | 88 | 1012.9 |
| 20260507055529 | 52 | 124 | 1.7 | 2.6 | 0.00 | 0.94 | 0.00 | 88 | 1012.9 |
| 20260507054527 | 51 | 107 | 0.9 | 2.6 | 0.00 | 0.95 | 0.00 | 89 | 1012.9 |
| 20260507053525 | 51 | 91 | 0.9 | 2.6 | 0.00 | 0.95 | 0.00 | 91 | 1012.8 |
| 20260507052522 | 50 | 119 | 0.9 | 2.6 | 0.00 | 0.98 | 0.00 | 93 | 1012.6 |
| 20260507051519 | 49 | 95 | 0.9 | 3.5 | 0.00 | 1.02 | 0.00 | 96 | 1012.6 |
| 20260507050517 | 48 | 113 | 0.9 | 1.7 | 0.00 | 1.06 | 0.00 | 97 | 1012.5 |
| 20260507045535 | 47 | 123 | 1.7 | 3.5 | 0.00 | 1.07 | 0.00 | 97 | 1012.4 |
| 20260507044532 | 47 | 77 | 0.9 | 1.7 | 0.00 | 1.11 | 0.00 | 97 | 1012.4 |
| 20260507043530 | 47 | 69 | 0.0 | 1.7 | 0.00 | 1.13 | 0.00 | 97 | 1012.3 |
| 20260507042527 | 47 | 0.0 | 0.9 | 0.00 | 1.16 | 0.00 | 97 | 1012.3 | |
| 20260507041525 | 46 | 320 | 0.0 | 1.7 | 0.00 | 1.17 | 0.00 | 97 | 1012.3 |
| 20260507040523 | 46 | 336 | 0.9 | 1.7 | 0.00 | 1.19 | 0.00 | 97 | 1012.1 |
| 20260507035520 | 46 | 267 | 0.9 | 2.6 | 0.00 | 1.24 | 0.00 | 97 | 1012.1 |
| 20260507034518 | 47 | 311 | 0.0 | 1.7 | 0.00 | 1.26 | 0.00 | 97 | 1012.2 |
| 20260507033515 | 46 | 302 | 0.9 | 2.6 | 0.00 | 1.26 | 0.00 | 97 | 1012.2 |
| 20260507032533 | 47 | 275 | 0.0 | 1.7 | 0.00 | 1.26 | 0.00 | 97 | 1012.2 |
| 20260507031531 | 47 | 354 | 0.9 | 1.7 | 0.00 | 1.28 | 0.00 | 97 | 1012.1 |
| 20260507030528 | 47 | 299 | 0.0 | 1.7 | 0.00 | 1.29 | 0.00 | 97 | 1012.2 |
| 20260507025526 | 47 | 1 | 0.9 | 2.6 | 0.00 | 1.30 | 0.00 | 97 | 1012.2 |
| 20260507024524 | 47 | 259 | 0.9 | 1.7 | 0.00 | 1.31 | 0.00 | 97 | 1012.2 |
| 20260507023521 | 48 | 71 | 0.9 | 1.7 | 0.00 | 1.33 | 0.00 | 98 | 1012.2 |
| 20260507022518 | 48 | 106 | 0.0 | 1.7 | 0.00 | 1.35 | 0.00 | 98 | 1012.3 |
| 20260507021516 | 48 | 31 | 0.9 | 1.7 | 0.00 | 1.35 | 0.00 | 98 | 1012.3 |
| 20260507020534 | 48 | 314 | 0.9 | 1.7 | 0.00 | 1.42 | 0.00 | 98 | 1012.3 |
| 20260507015531 | 48 | 123 | 0.0 | 1.7 | 0.00 | 1.47 | 0.00 | 98 | 1012.2 |
| 20260507014529 | 49 | 343 | 0.9 | 1.7 | 0.00 | 1.47 | 0.00 | 98 | 1012.2 |
| 20260507013526 | 49 | 74 | 0.9 | 1.7 | 0.00 | 1.47 | 0.00 | 98 | 1012.3 |
| 20260507012524 | 49 | 8 | 1.7 | 2.6 | 0.00 | 1.47 | 0.00 | 98 | 1012.2 |
| 20260507011522 | 50 | 31 | 0.9 | 1.7 | 0.00 | 1.47 | 0.00 | 98 | 1012.2 |
| 20260507010519 | 50 | 78 | 0.9 | 1.7 | 0.00 | 1.47 | 0.00 | 98 | 1012.3 |
| 20260507005517 | 50 | 346 | 0.0 | 1.7 | 0.00 | 1.50 | 0.00 | 97 | 1012.3 |
| 20260507004535 | 49 | 314 | 0.0 | 0.9 | 0.00 | 1.56 | 0.00 | 97 | 1012.2 |
| 20260507003532 | 50 | 0.0 | 1.7 | 0.00 | 1.65 | 0.00 | 97 | 1012.2 | |
| 20260507002529 | 50 | 0.0 | 0.9 | 0.00 | 1.70 | 0.00 | 97 | 1012.1 | |
| 20260507001527 | 50 | 247 | 0.0 | 1.7 | 0.00 | 1.74 | 0.00 | 97 | 1012.2 |
| 20260507000525 | 50 | 35 | 0.0 | 1.7 | 0.00 | 1.78 | 0.00 | 97 | 1012.3 |
| 20260506235522 | 50 | 320 | 0.0 | 1.7 | 0.00 | 1.80 | 0.00 | 96 | 1012.2 |
| 20260506234520 | 50 | 57 | 0.9 | 1.7 | 0.00 | 1.80 | 0.00 | 96 | 1012.3 |
| 20260506233518 | 50 | 257 | 0.0 | 1.7 | 0.00 | 1.80 | 0.00 | 96 | 1012.3 |
| 20260506232515 | 50 | 0.0 | 0.9 | 0.00 | 1.81 | 0.00 | 96 | 1012.3 | |
| 20260506231533 | 51 | 303 | 0.0 | 1.7 | 0.00 | 1.93 | 0.00 | 96 | 1012.3 |
| 20260506230531 | 51 | 329 | 0.9 | 2.6 | 0.00 | 2.10 | 0.00 | 96 | 1012.3 |
| 20260506225528 | 51 | 57 | 0.9 | 1.7 | 0.00 | 2.17 | 0.00 | 96 | 1012.4 |
| 20260506224526 | 51 | 42 | 0.9 | 1.7 | 0.00 | 2.34 | 0.00 | 96 | 1012.4 |
| 20260506223523 | 51 | 320 | 0.0 | 1.7 | 0.00 | 2.35 | 0.00 | 96 | 1012.4 |
| 20260506222521 | 51 | 37 | 0.0 | 1.7 | 0.00 | 2.35 | 0.00 | 95 | 1012.3 |
| 20260506221518 | 52 | 318 | 0.0 | 1.7 | 0.00 | 2.35 | 0.00 | 95 | 1012.4 |
| 20260506220516 | 52 | 0.0 | 1.7 | 0.00 | 2.35 | 0.00 | 95 | 1012.4 | |
| 20260506215534 | 52 | 11 | 0.0 | 1.7 | 0.00 | 2.35 | 2.35 | 95 | 1012.4 |
| 20260506214531 | 52 | 322 | 0.9 | 1.7 | 0.00 | 2.36 | 2.35 | 95 | 1012.2 |
| 20260506213529 | 51 | 301 | 0.0 | 1.7 | 0.00 | 2.37 | 2.35 | 94 | 1012.3 |
| 20260506212526 | 52 | 301 | 0.0 | 1.7 | 0.00 | 2.41 | 2.35 | 95 | 1012.2 |
| 20260506211524 | 52 | 72 | 0.0 | 0.9 | 0.00 | 2.46 | 2.35 | 94 | 1012.2 |
| 20260506210522 | 52 | 56 | 1.7 | 2.6 | 0.00 | 2.52 | 2.35 | 94 | 1012.2 |
| 20260506205519 | 52 | 283 | 0.9 | 1.7 | 0.00 | 2.54 | 2.35 | 95 | 1012.0 |
| 20260506204517 | 52 | 256 | 0.0 | 1.7 | 0.00 | 2.57 | 2.35 | 96 | 1012.1 |
| 20260506203534 | 53 | 250 | 0.9 | 2.6 | 0.00 | 2.57 | 2.35 | 96 | 1012.0 |
| 20260506202532 | 53 | 254 | 0.9 | 2.6 | 0.00 | 2.57 | 2.35 | 96 | 1012.0 |
| 20260506201530 | 53 | 260 | 0.9 | 2.6 | 0.00 | 2.57 | 2.35 | 96 | 1011.9 |
| 20260506200528 | 53 | 291 | 0.0 | 1.7 | 0.00 | 2.58 | 2.35 | 96 | 1011.8 |
| 20260506195525 | 53 | 240 | 0.0 | 1.7 | 0.00 | 2.58 | 2.35 | 96 | 1011.7 |
| 20260506194522 | 54 | 163 | 0.9 | 2.6 | 0.00 | 2.58 | 2.35 | 96 | 1011.6 |
| 20260506193520 | 54 | 125 | 0.9 | 4.3 | 0.00 | 2.60 | 2.35 | 96 | 1011.5 |
| 20260506192518 | 53 | 64 | 0.0 | 1.7 | 0.00 | 2.60 | 2.35 | 94 | 1011.4 |
| 20260506191515 | 53 | 271 | 0.9 | 1.7 | 0.00 | 2.60 | 2.35 | 93 | 1011.2 |
| 20260506190533 | 53 | 287 | 0.0 | 1.7 | 0.00 | 2.62 | 2.35 | 93 | 1011.0 |
| 20260506185531 | 54 | 292 | 0.0 | 1.7 | 0.00 | 2.63 | 2.35 | 92 | 1010.8 |
| 20260506184529 | 54 | 0.0 | 0.9 | 0.00 | 2.63 | 2.35 | 92 | 1010.7 | |
| 20260506183526 | 55 | 296 | 0.0 | 1.7 | 0.00 | 2.63 | 2.35 | 91 | 1010.6 |
| 20260506182523 | 55 | 16 | 0.9 | 2.6 | 0.00 | 2.63 | 2.35 | 90 | 1010.6 |
| 20260506181521 | 55 | 241 | 0.9 | 1.7 | 0.00 | 2.63 | 2.35 | 90 | 1010.5 |
| 20260506180518 | 56 | 62 | 0.9 | 2.6 | 0.00 | 2.63 | 2.35 | 91 | 1010.5 |
| 20260506175516 | 56 | 70 | 0.9 | 2.6 | 0.00 | 2.63 | 2.35 | 92 | 1010.3 |
| 20260506174534 | 56 | 86 | 0.9 | 2.6 | 0.00 | 2.63 | 2.35 | 91 | 1010.2 |
| 20260506173531 | 57 | 53 | 2.6 | 6.1 | 0.00 | 2.63 | 2.35 | 91 | 1010.3 |
| 20260506172529 | 57 | 86 | 2.6 | 4.3 | 0.00 | 2.63 | 2.35 | 91 | 1010.4 |
| 20260506171526 | 57 | 102 | 1.7 | 3.5 | 0.00 | 2.63 | 2.35 | 90 | 1010.4 |
| 20260506170524 | 57 | 103 | 2.6 | 4.3 | 0.00 | 2.63 | 2.35 | 89 | 1010.4 |
| 20260506165522 | 57 | 120 | 1.7 | 3.5 | 0.00 | 2.63 | 2.35 | 88 | 1010.2 |
| 20260506164519 | 58 | 95 | 0.9 | 3.5 | 0.00 | 2.63 | 2.35 | 86 | 1010.3 |
| 20260506163517 | 58 | 55 | 0.9 | 3.5 | 0.00 | 2.63 | 2.35 | 84 | 1010.3 |
| 20260506162535 | 58 | 150 | 0.0 | 1.7 | 0.00 | 2.63 | 2.35 | 85 | 1010.4 |
| 20260506161532 | 58 | 101 | 0.9 | 5.2 | 0.00 | 2.63 | 2.35 | 85 | 1010.4 |
| 20260506160530 | 58 | 176 | 0.9 | 5.2 | 0.00 | 2.63 | 2.35 | 84 | 1010.4 |
| 20260506155527 | 59 | 187 | 0.9 | 5.2 | 0.00 | 2.63 | 2.35 | 82 | 1010.3 |
| 20260506154525 | 59 | 162 | 1.7 | 3.5 | 0.00 | 2.63 | 2.35 | 80 | 1010.5 |
| 20260506153523 | 60 | 96 | 1.7 | 3.5 | 0.00 | 2.63 | 2.35 | 79 | 1010.4 |
| 20260506152520 | 61 | 56 | 1.7 | 5.2 | 0.00 | 2.63 | 2.35 | 78 | 1010.2 |
| 20260506151518 | 61 | 77 | 2.6 | 5.2 | 0.00 | 2.63 | 2.35 | 79 | 1010.3 |
| 20260506150515 | 61 | 266 | 2.6 | 6.1 | 0.00 | 2.63 | 2.35 | 78 | 1010.3 |
| 20260506145533 | 60 | 101 | 0.9 | 2.6 | 0.00 | 2.63 | 2.35 | 82 | 1010.3 |
| 20260506144531 | 60 | 289 | 2.6 | 7.8 | 0.00 | 2.63 | 2.35 | 81 | 1010.3 |
| 20260506143528 | 61 | 128 | 0.9 | 5.2 | 0.00 | 2.63 | 2.35 | 85 | 1010.2 |
| 20260506142526 | 61 | 96 | 1.7 | 3.5 | 0.00 | 2.63 | 2.35 | 85 | 1010.2 |
| 20260506141523 | 60 | 93 | 1.7 | 5.2 | 0.00 | 2.63 | 2.35 | 87 | 1010.2 |
| 20260506140521 | 59 | 95 | 1.7 | 4.3 | 0.00 | 2.63 | 2.35 | 88 | 1010.3 |
| 20260506135519 | 59 | 83 | 2.6 | 5.2 | 0.00 | 2.63 | 2.35 | 91 | 1010.2 |
| 20260506134516 | 58 | 63 | 2.6 | 6.1 | 0.00 | 2.63 | 2.35 | 92 | 1010.4 |
| 20260506133534 | 58 | 85 | 3.5 | 8.7 | 0.00 | 2.63 | 2.35 | 92 | 1010.4 |
| 20260506132532 | 58 | 90 | 3.5 | 8.7 | 0.00 | 2.63 | 2.35 | 92 | 1010.4 |
| 20260506131529 | 58 | 75 | 2.6 | 5.2 | 0.00 | 2.63 | 2.35 | 93 | 1010.3 |
| 20260506130527 | 58 | 78 | 3.5 | 5.2 | 0.00 | 2.63 | 2.35 | 94 | 1010.3 |
| 20260506125524 | 58 | 80 | 2.6 | 5.2 | 0.00 | 2.63 | 2.35 | 95 | 1010.2 |
| 20260506124522 | 58 | 83 | 2.6 | 9.6 | 0.00 | 2.63 | 2.35 | 96 | 1010.3 |
| 20260506123519 | 57 | 80 | 3.5 | 9.6 | 0.05 | 2.63 | 2.35 | 96 | 1010.1 |
| 20260506122517 | 57 | 80 | 3.5 | 8.7 | 0.09 | 2.63 | 2.35 | 98 | 1010.2 |
| 20260506121535 | 58 | 87 | 1.7 | 6.1 | 0.11 | 2.63 | 2.35 | 98 | 1010.3 |
| 20260506120532 | 57 | 82 | 1.7 | 7.0 | 0.16 | 2.65 | 2.35 | 97 | 1010.1 |
| 20260506115530 | 57 | 96 | 0.9 | 3.5 | 0.16 | 2.72 | 2.35 | 96 | 1009.9 |
| 20260506114528 | 55 | 62 | 3.5 | 9.6 | 0.16 | 2.72 | 2.35 | 96 | 1010.0 |
| 20260506113525 | 56 | 88 | 3.5 | 7.8 | 0.11 | 2.68 | 2.30 | 98 | 1010.1 |
| 20260506112523 | 57 | 81 | 4.3 | 8.7 | 0.11 | 2.63 | 2.25 | 99 | 1009.9 |
| 20260506111520 | 57 | 101 | 4.3 | 10.4 | 0.27 | 2.62 | 2.24 | 99 | 1009.7 |
| 20260506110518 | 57 | 86 | 3.5 | 12.2 | 0.30 | 2.57 | 2.19 | 99 | 1009.8 |
| 20260506105515 | 57 | 94 | 3.5 | 9.6 | 0.30 | 2.56 | 2.19 | 99 | 1009.8 |
| 20260506104533 | 57 | 177 | 3.5 | 11.3 | 0.30 | 2.57 | 2.19 | 99 | 1009.9 |
| 20260506103531 | 56 | 83 | 3.5 | 9.6 | 0.30 | 2.59 | 2.19 | 99 | 1009.8 |
| 20260506102528 | 55 | 94 | 3.5 | 7.0 | 0.26 | 2.55 | 2.15 | 99 | 1010.0 |
| 20260506101526 | 56 | 178 | 3.5 | 10.4 | 0.09 | 2.37 | 1.97 | 99 | 1010.0 |
| 20260506100524 | 57 | 170 | 3.5 | 9.6 | 0.02 | 2.30 | 1.89 | 99 | 1009.9 |
| 20260506095521 | 57 | 139 | 4.3 | 10.4 | 0.02 | 2.31 | 1.89 | 99 | 1009.8 |
| 20260506094519 | 57 | 147 | 4.3 | 10.4 | 0.01 | 2.34 | 1.89 | 99 | 1009.8 |
| 20260506093516 | 56 | 172 | 3.5 | 13.0 | 0.02 | 2.35 | 1.89 | 99 | 1009.7 |
| 20260506092534 | 56 | 140 | 3.5 | 9.6 | 0.02 | 2.35 | 1.89 | 99 | 1009.6 |
| 20260506091532 | 56 | 240 | 2.6 | 8.7 | 0.01 | 2.40 | 1.87 | 99 | 1009.7 |
| 20260506090529 | 56 | 168 | 3.5 | 8.7 | 0.01 | 2.53 | 1.87 | 99 | 1009.5 |
| 20260506085527 | 56 | 101 | 2.6 | 12.2 | 0.01 | 2.67 | 1.87 | 99 | 1009.4 |
| 20260506084525 | 55 | 145 | 3.5 | 10.4 | 0.01 | 2.70 | 1.87 | 99 | 1009.4 |
| 20260506083522 | 55 | 239 | 2.6 | 8.7 | 0.00 | 2.84 | 1.87 | 99 | 1009.8 |
| 20260506082520 | 55 | 149 | 3.5 | 7.8 | 0.01 | 2.91 | 1.87 | 99 | 1009.7 |
| 20260506081517 | 55 | 152 | 3.5 | 9.6 | 0.02 | 2.93 | 1.87 | 99 | 1009.8 |
| 20260506080535 | 55 | 179 | 3.5 | 8.7 | 0.02 | 3.00 | 1.86 | 99 | 1009.7 |
| 20260506073528 | 55 | 123 | 0.9 | 4.3 | 0.25 | 3.11 | 1.86 | 99 | 1009.9 |
| 20260506072525 | 55 | 185 | 3.5 | 7.0 | 0.28 | 3.17 | 1.86 | 99 | 1009.9 |
| 20260506071523 | 55 | 200 | 0.9 | 3.5 | 0.39 | 3.43 | 1.85 | 99 | 1009.8 |
| 20260506070520 | 55 | 173 | 3.5 | 8.7 | 0.44 | 3.56 | 1.85 | 99 | 1009.7 |